Regional Weather Roundup
Issued by NWS Charleston, WV

Home | Current Version | Previous Version | Graphics & Text | Print | Product List | Glossary On
Versions: 1 2 3 4 5 6 7 8 9 10 11 12 13 14 15 16 17 18 19 20 21 22 23 24 25 26 27 28 29 30 31 32 33 34 35 36 37 38 39 40 41 42 43 44 45 46 47 48 49 50
000
ASUS41 KRLX 222110
RWRRLX
West Virginia Regional Weather Roundup
National Weather Service Charleston WV
500 PM EDT MON SEP 22 2014

Note: "fair" indicates few or no clouds below 12,000 feet with no
significant weather and/or obstructions to visibility.

WVZ003-222200-
Northern Panhandle of West Virginia

CITY           SKY/WX    TMP DP  RH WIND       PRES   REMARKS
WHEELING       PTSUNNY   59  43  55 W9        30.18S
$$

WVZ009-222200-
Northwest West Virginia

CITY           SKY/WX    TMP DP  RH WIND       PRES   REMARKS
PARKERSBURG    MOSUNNY   65  45  48 VRB3      30.20F
$$

WVZ006-222200-
Western West Virginia

CITY           SKY/WX    TMP DP  RH WIND       PRES   REMARKS
HUNTINGTON     SUNNY     66  45  46 VRB3      30.17F
$$

WVZ015-222200-
West Central West Virginia

CITY           SKY/WX    TMP DP  RH WIND       PRES   REMARKS
CHARLESTON     MOSUNNY   66  46  48 NW7       30.18S
$$

WVZ031-222200-
North Central West Virginia

CITY           SKY/WX    TMP DP  RH WIND       PRES   REMARKS
CLARKSBURG     PTSUNNY   61  43  51 W7        30.18S
MORGANTOWN     CLOUDY    61  41  47 VRB7      30.18S
$$

WVZ035-042-045-222200-
South Central West Virginia

CITY           SKY/WX    TMP DP  RH WIND       PRES   REMARKS
BECKLEY        PTSUNNY   61  45  55 NW8       30.19R
BLUEFIELD      MOSUNNY   62  46  55 N7        30.19R
LEWISBURG      MOSUNNY   64  44  47 NW9       30.16R
$$

WVZ047-222200-
Northern Mountains of West Virginia

CITY           SKY/WX    TMP DP  RH WIND       PRES   REMARKS
ELKINS         CLOUDY    59  47  64 NW8       30.19R
$$

WVZ052-222200-
Eastern Panhandle of West Virginia

CITY           SKY/WX    TMP DP  RH WIND       PRES   REMARKS
MARTINSBURG    SUNNY     69  41  36 NW10G20   30.09R
PETERSBURG     SUNNY     65  37  36 NW14G21   30.14R
$$



USA.gov is the U.S. government's official web portal to all federal, state and local government web resources and services.